Time,TemperatureF,DewpointF,PressureIn,WindDirection,WindDirectionDegrees,WindSpeedMPH,WindSpeedGustMPH,Humidity,HourlyPrecipIn,Conditions,Clouds,dailyrainin,SoftwareType,DateUTC
2013-04-07 04:00:00,18.0,16.0,-100.00,WSW,249,18.0,26.0,91,-99.99,,,-99.99,,2013-04-07 10:00:00,
2013-04-07 04:43:00,18.0,16.0,-100.00,WSW,249,18.0,26.0,91,-99.99,,,-99.99,,2013-04-07 10:43:00,
2013-04-07 04:54:00,18.0,16.0,-100.00,WSW,249,18.0,26.0,91,-99.99,,,-99.99,,2013-04-07 10:54:00,
2013-04-07 06:00:00,18.0,17.0,-100.00,West,259,17.0,27.0,95,-99.99,,,-99.99,,2013-04-07 12:00:00,
2013-04-07 06:43:00,18.0,17.0,-100.00,West,259,17.0,27.0,95,-99.99,,,-99.99,,2013-04-07 12:43:00,
2013-04-07 06:54:00,18.0,17.0,-100.00,West,259,17.0,27.0,95,-99.99,,,-99.99,,2013-04-07 12:54:00,
2013-04-07 08:00:00,18.0,16.0,-100.00,WNW,283,14.0,26.0,93,-99.99,,,-99.99,,2013-04-07 14:00:00,
2013-04-07 08:44:00,18.0,16.0,-100.00,WNW,283,14.0,26.0,93,-99.99,,,-99.99,,2013-04-07 14:44:00,
2013-04-07 08:54:00,18.0,16.0,-100.00,WNW,283,14.0,26.0,93,-99.99,,,-99.99,,2013-04-07 14:54:00,
2013-04-07 10:00:00,20.0,16.0,-100.00,WNW,292,10.0,19.0,85,-99.99,,,-99.99,,2013-04-07 16:00:00,
2013-04-07 10:44:00,20.0,16.0,-100.00,WNW,292,10.0,19.0,85,-99.99,,,-99.99,,2013-04-07 16:44:00,
2013-04-07 10:54:00,20.0,16.0,-100.00,WNW,292,10.0,19.0,85,-99.99,,,-99.99,,2013-04-07 16:54:00,
2013-04-07 11:00:00,22.0,17.0,-100.00,West,276,15.0,30.0,82,-99.99,,,-99.99,,2013-04-07 17:00:00,
2013-04-07 11:43:00,22.0,17.0,-100.00,West,276,15.0,30.0,82,-99.99,,,-99.99,,2013-04-07 17:43:00,
2013-04-07 11:54:00,22.0,17.0,-100.00,West,276,15.0,30.0,82,-99.99,,,-99.99,,2013-04-07 17:54:00,
2013-04-07 12:00:00,23.0,18.0,-100.00,West,276,17.0,33.0,80,-99.99,,,-99.99,,2013-04-07 18:00:00,
2013-04-07 12:44:00,23.0,18.0,-100.00,West,276,17.0,33.0,80,-99.99,,,-99.99,,2013-04-07 18:44:00,
2013-04-07 12:53:00,23.0,18.0,-100.00,West,276,17.0,33.0,80,-99.99,,,-99.99,,2013-04-07 18:53:00,
2013-04-07 17:00:00,24.0,19.0,-100.00,WSW,250,19.0,38.0,83,-99.99,,,-99.99,,2013-04-07 23:00:00,
2013-04-07 17:43:00,24.0,19.0,-100.00,WSW,250,19.0,38.0,83,-99.99,,,-99.99,,2013-04-07 23:43:00,
2013-04-07 17:53:00,24.0,19.0,-100.00,WSW,250,19.0,38.0,83,-99.99,,,-99.99,,2013-04-07 23:53:00,
2013-04-07 18:00:00,24.0,19.0,-100.00,WSW,240,19.0,42.0,83,-99.99,,,-99.99,,2013-04-08 00:00:00,
2013-04-07 18:43:00,24.0,19.0,-100.00,WSW,240,19.0,42.0,83,-99.99,,,-99.99,,2013-04-08 00:43:00,
2013-04-07 18:53:00,24.0,19.0,-100.00,WSW,240,19.0,42.0,83,-99.99,,,-99.99,,2013-04-08 00:53:00,
2013-04-07 19:00:00,23.0,21.0,-100.00,SW,230,16.0,31.0,92,-99.99,,,-99.99,,2013-04-08 01:00:00,
2013-04-07 19:44:00,23.0,21.0,-100.00,SW,230,16.0,31.0,92,-99.99,,,-99.99,,2013-04-08 01:44:00,
2013-04-07 19:55:00,23.0,21.0,-100.00,SW,230,16.0,31.0,92,-99.99,,,-99.99,,2013-04-08 01:55:00,
2013-04-07 20:00:00,23.0,21.0,-100.00,WSW,242,16.0,40.0,93,-99.99,,,-99.99,,2013-04-08 02:00:00,
2013-04-07 20:54:00,23.0,21.0,-100.00,WSW,242,16.0,40.0,93,-99.99,,,-99.99,,2013-04-08 02:54:00,
2013-04-07 21:00:00,23.0,21.0,-100.00,SW,232,13.0,24.0,91,-99.99,,,-99.99,,2013-04-08 03:00:00,
2013-04-07 21:48:00,23.0,21.0,-100.00,SW,232,13.0,24.0,91,-99.99,,,-99.99,,2013-04-08 03:48:00,
2013-04-07 21:57:00,23.0,21.0,-100.00,SW,232,13.0,24.0,91,-99.99,,,-99.99,,2013-04-08 03:57:00,
2013-04-07 23:00:00,24.0,17.0,-100.00,SW,226,13.0,32.0,73,-99.99,,,-99.99,,2013-04-08 05:00:00,
2013-04-07 23:42:00,24.0,17.0,-100.00,SW,226,13.0,32.0,73,-99.99,,,-99.99,,2013-04-08 05:42:00,
2013-04-07 23:52:00,24.0,17.0,-100.00,SW,226,13.0,32.0,73,-99.99,,,-99.99,,2013-04-08 05:52:00,